Time,TemperatureF,DewpointF,PressureIn,WindDirection,WindDirectionDegrees,WindSpeedMPH,WindSpeedGustMPH,Humidity,HourlyPrecipIn,Conditions,Clouds,dailyrainin,SoftwareType,DateUTC
2013-10-26 00:00:00,35.4,31.0,30.22,West,261,0.0,6.0,84,0.00,,,0.00,Wunderground v.1.15,2013-10-26 04:00:00,
2013-10-26 00:05:00,35.3,30.9,30.22,West,261,0.0,6.0,84,0.00,,,0.00,Wunderground v.1.15,2013-10-26 04:05:00,
2013-10-26 00:10:00,35.2,30.9,30.22,West,261,0.0,6.0,84,0.00,,,0.00,Wunderground v.1.15,2013-10-26 04:10:00,
2013-10-26 00:15:00,35.1,30.8,30.22,West,261,0.0,6.0,84,0.00,,,0.00,Wunderground v.1.15,2013-10-26 04:15:00,
2013-10-26 00:20:00,35.0,30.7,30.22,West,261,0.0,6.0,84,0.00,,,0.00,Wunderground v.1.15,2013-10-26 04:20:00,
2013-10-26 00:25:00,34.9,30.6,30.22,West,261,0.0,6.0,84,0.00,,,0.00,Wunderground v.1.15,2013-10-26 04:25:00,
2013-10-26 00:30:00,34.7,30.4,30.22,West,261,0.0,6.0,84,0.00,,,0.00,Wunderground v.1.15,2013-10-26 04:30:00,
2013-10-26 00:35:00,34.6,30.3,30.21,West,261,0.0,6.0,84,0.00,,,0.00,Wunderground v.1.15,2013-10-26 04:35:00,
2013-10-26 00:45:00,34.2,29.9,30.22,West,261,0.0,6.0,84,0.00,,,0.00,Wunderground v.1.15,2013-10-26 04:45:00,
2013-10-26 00:50:00,34.2,30.2,30.22,West,261,0.0,6.0,85,0.00,,,0.00,Wunderground v.1.15,2013-10-26 04:50:00,
2013-10-26 00:55:00,34.1,30.1,30.21,West,261,0.0,6.0,85,0.00,,,0.00,Wunderground v.1.15,2013-10-26 04:55:00,
2013-10-26 01:00:00,34.1,30.4,30.21,West,261,0.0,6.0,86,0.00,,,0.00,Wunderground v.1.15,2013-10-26 05:00:00,
2013-10-26 01:05:00,34.1,30.1,30.21,West,261,0.0,6.0,85,0.00,,,0.00,Wunderground v.1.15,2013-10-26 05:05:00,
2013-10-26 01:15:00,34.4,30.4,30.21,West,261,0.0,6.0,85,0.00,,,0.00,Wunderground v.1.15,2013-10-26 05:15:00,
2013-10-26 01:20:00,34.4,30.4,30.21,West,261,0.0,6.0,85,0.00,,,0.00,Wunderground v.1.15,2013-10-26 05:20:00,
2013-10-26 01:25:00,34.5,30.5,30.20,West,261,0.0,6.0,85,0.00,,,0.00,Wunderground v.1.15,2013-10-26 05:25:00,
2013-10-26 01:35:00,34.6,30.3,30.20,West,261,0.0,6.0,84,0.00,,,0.00,Wunderground v.1.15,2013-10-26 05:35:00,
2013-10-26 01:40:00,34.7,30.4,30.21,West,261,0.0,6.0,84,0.00,,,0.00,Wunderground v.1.15,2013-10-26 05:40:00,
2013-10-26 01:50:00,34.8,30.5,30.21,West,261,0.0,6.0,84,0.00,,,0.00,Wunderground v.1.15,2013-10-26 05:50:00,
2013-10-26 01:55:00,34.8,30.2,30.21,West,261,0.0,6.0,83,0.00,,,0.00,Wunderground v.1.15,2013-10-26 05:55:00,
2013-10-26 02:00:00,34.9,30.3,30.21,West,261,0.0,6.0,83,0.00,,,0.00,Wunderground v.1.15,2013-10-26 06:00:00,
2013-10-26 02:05:00,34.9,30.3,30.20,West,261,0.0,6.0,83,0.00,,,0.00,Wunderground v.1.15,2013-10-26 06:05:00,
2013-10-26 02:10:00,34.8,30.2,30.20,West,261,0.0,6.0,83,0.00,,,0.00,Wunderground v.1.15,2013-10-26 06:10:00,
2013-10-26 02:15:00,34.8,30.2,30.20,West,261,0.0,6.0,83,0.00,,,0.00,Wunderground v.1.15,2013-10-26 06:15:00,
2013-10-26 02:25:00,34.6,30.0,30.19,West,261,0.0,6.0,83,0.00,,,0.00,Wunderground v.1.15,2013-10-26 06:25:00,
2013-10-26 02:30:00,34.5,29.9,30.19,West,261,0.0,6.0,83,0.00,,,0.00,Wunderground v.1.15,2013-10-26 06:30:00,
2013-10-26 02:40:00,34.2,29.6,30.19,West,261,0.0,6.0,83,0.00,,,0.00,Wunderground v.1.15,2013-10-26 06:40:00,
2013-10-26 02:45:00,34.1,29.8,30.19,West,261,0.0,6.0,84,0.00,,,0.00,Wunderground v.1.15,2013-10-26 06:45:00,
2013-10-26 02:50:00,34.1,29.8,30.19,West,261,0.0,6.0,84,0.00,,,0.00,Wunderground v.1.15,2013-10-26 06:50:00,
2013-10-26 02:55:00,34.1,29.8,30.18,SSW,211,0.0,6.0,84,0.00,,,0.00,Wunderground v.1.15,2013-10-26 06:55:00,
2013-10-26 03:00:00,34.2,29.6,30.18,SSW,211,0.0,6.0,83,0.00,,,0.00,Wunderground v.1.15,2013-10-26 07:00:00,
2013-10-26 03:05:00,34.2,29.6,30.18,SSW,211,0.0,6.0,83,0.00,,,0.00,Wunderground v.1.15,2013-10-26 07:05:00,
2013-10-26 03:10:00,34.3,30.0,30.18,WSW,245,0.0,6.0,84,0.00,,,0.00,Wunderground v.1.15,2013-10-26 07:10:00,
2013-10-26 03:15:00,34.3,29.7,30.18,WSW,245,0.0,6.0,83,0.00,,,0.00,Wunderground v.1.15,2013-10-26 07:15:00,
2013-10-26 03:20:00,34.3,29.7,30.17,WSW,245,0.0,6.0,83,0.00,,,0.00,Wunderground v.1.15,2013-10-26 07:20:00,
2013-10-26 03:30:00,34.3,29.7,30.17,WSW,242,0.0,6.0,83,0.00,,,0.00,Wunderground v.1.15,2013-10-26 07:30:00,
2013-10-26 03:35:00,34.2,29.6,30.16,WSW,242,0.0,6.0,83,0.00,,,0.00,Wunderground v.1.15,2013-10-26 07:35:00,
2013-10-26 03:40:00,34.2,29.6,30.16,WSW,242,0.0,6.0,83,0.00,,,0.00,Wunderground v.1.15,2013-10-26 07:40:00,
2013-10-26 03:50:00,34.1,29.5,30.16,WSW,242,0.0,6.0,83,0.00,,,0.00,Wunderground v.1.15,2013-10-26 07:50:00,
2013-10-26 03:55:00,33.9,29.3,30.15,WSW,242,0.0,6.0,83,0.00,,,0.00,Wunderground v.1.15,2013-10-26 07:55:00,
2013-10-26 04:05:00,33.8,29.2,30.15,WSW,242,0.0,6.0,83,0.00,,,0.00,Wunderground v.1.15,2013-10-26 08:05:00,
2013-10-26 04:10:00,33.8,29.5,30.15,WSW,242,0.0,6.0,84,0.00,,,0.00,Wunderground v.1.15,2013-10-26 08:10:00,
2013-10-26 04:15:00,33.8,29.2,30.14,WSW,242,0.0,6.0,83,0.00,,,0.00,Wunderground v.1.15,2013-10-26 08:15:00,
2013-10-26 04:20:00,33.8,29.2,30.14,WSW,240,0.0,6.0,83,0.00,,,0.00,Wunderground v.1.15,2013-10-26 08:20:00,
2013-10-26 04:25:00,33.9,29.3,30.14,WSW,257,0.0,6.0,83,0.00,,,0.00,Wunderground v.1.15,2013-10-26 08:25:00,
2013-10-26 04:30:00,33.9,29.3,30.14,WSW,257,0.0,6.0,83,0.00,,,0.00,Wunderground v.1.15,2013-10-26 08:30:00,
2013-10-26 04:40:00,33.9,29.6,30.13,WSW,242,0.0,6.0,84,0.00,,,0.00,Wunderground v.1.15,2013-10-26 08:40:00,
2013-10-26 04:45:00,33.9,29.3,30.13,WSW,242,0.0,6.0,83,0.00,,,0.00,Wunderground v.1.15,2013-10-26 08:45:00,
2013-10-26 04:50:00,33.8,29.2,30.13,WSW,248,0.0,6.0,83,0.00,,,0.00,Wunderground v.1.15,2013-10-26 08:50:00,
2013-10-26 05:00:00,33.8,29.2,30.13,WSW,242,0.0,6.0,83,0.00,,,0.00,Wunderground v.1.15,2013-10-26 09:00:00,
2013-10-26 05:05:00,33.6,29.3,30.13,WSW,242,0.0,6.0,84,0.00,,,0.00,Wunderground v.1.15,2013-10-26 09:05:00,
2013-10-26 05:10:00,33.6,29.3,30.13,WSW,242,0.0,6.0,84,0.00,,,0.00,Wunderground v.1.15,2013-10-26 09:10:00,
2013-10-26 05:15:00,33.7,29.4,30.13,WSW,240,0.0,6.0,84,0.00,,,0.00,Wunderground v.1.15,2013-10-26 09:15:00,
2013-10-26 05:20:00,33.7,29.1,30.13,WSW,240,0.0,6.0,83,0.00,,,0.00,Wunderground v.1.15,2013-10-26 09:20:00,
2013-10-26 05:25:00,33.7,29.1,30.13,WSW,242,0.0,6.0,83,0.00,,,0.00,Wunderground v.1.15,2013-10-26 09:25:00,
2013-10-26 05:30:00,33.8,29.2,30.13,WSW,244,0.0,6.0,83,0.00,,,0.00,Wunderground v.1.15,2013-10-26 09:30:00,
2013-10-26 05:35:00,33.9,29.3,30.13,WSW,252,1.0,6.0,83,0.00,,,0.00,Wunderground v.1.15,2013-10-26 09:35:00,
2013-10-26 05:40:00,33.9,29.3,30.13,WSW,252,1.0,1.0,83,0.00,,,0.00,Wunderground v.1.15,2013-10-26 09:40:00,
2013-10-26 05:45:00,33.8,29.2,30.13,WSW,252,0.0,6.0,83,0.00,,,0.00,Wunderground v.1.15,2013-10-26 09:45:00,
2013-10-26 05:50:00,33.7,29.1,30.13,WSW,252,0.0,6.0,83,0.00,,,0.00,Wunderground v.1.15,2013-10-26 09:50:00,
2013-10-26 05:55:00,33.7,29.1,30.13,WSW,254,1.0,6.0,83,0.00,,,0.00,Wunderground v.1.15,2013-10-26 09:55:00,
2013-10-26 06:00:00,33.7,29.1,30.13,WSW,254,0.0,6.0,83,0.00,,,0.00,Wunderground v.1.15,2013-10-26 10:00:00,
2013-10-26 06:05:00,33.6,29.0,30.13,WSW,254,0.0,6.0,83,0.00,,,0.00,Wunderground v.1.15,2013-10-26 10:05:00,
2013-10-26 06:15:00,33.4,28.8,30.13,WSW,254,0.0,6.0,83,0.00,,,0.00,Wunderground v.1.15,2013-10-26 10:15:00,
2013-10-26 06:25:00,33.2,28.9,30.13,WSW,254,0.0,6.0,84,0.00,,,0.00,Wunderground v.1.15,2013-10-26 10:25:00,
2013-10-26 06:30:00,33.2,28.9,30.12,WSW,253,0.0,6.0,84,0.00,,,0.00,Wunderground v.1.15,2013-10-26 10:30:00,
2013-10-26 06:35:00,33.2,28.9,30.12,WSW,253,0.0,6.0,84,0.00,,,0.00,Wunderground v.1.15,2013-10-26 10:35:00,
2013-10-26 06:40:00,33.2,28.9,30.12,WSW,253,0.0,6.0,84,0.00,,,0.00,Wunderground v.1.15,2013-10-26 10:40:00,
2013-10-26 06:45:00,33.2,28.6,30.11,WSW,245,0.0,6.0,83,0.00,,,0.00,Wunderground v.1.15,2013-10-26 10:45:00,
2013-10-26 06:50:00,33.3,28.7,30.11,WSW,245,0.0,6.0,83,0.00,,,0.00,Wunderground v.1.15,2013-10-26 10:50:00,
2013-10-26 06:55:00,33.4,28.8,30.10,WSW,242,0.0,6.0,83,0.00,,,0.00,Wunderground v.1.15,2013-10-26 10:55:00,
2013-10-26 07:00:00,33.4,28.8,30.10,WSW,245,0.0,6.0,83,0.00,,,0.00,Wunderground v.1.15,2013-10-26 11:00:00,
2013-10-26 07:05:00,33.5,28.9,30.09,SW,232,1.0,6.0,83,0.00,,,0.00,Wunderground v.1.15,2013-10-26 11:05:00,
2013-10-26 07:10:00,33.7,29.1,30.10,WSW,247,1.0,6.0,83,0.00,,,0.00,Wunderground v.1.15,2013-10-26 11:10:00,
2013-10-26 07:20:00,33.9,29.0,30.09,WSW,253,2.0,6.0,82,0.00,,,0.00,Wunderground v.1.15,2013-10-26 11:20:00,
2013-10-26 07:30:00,34.1,28.9,30.09,West,267,1.0,6.0,81,0.00,,,0.00,Wunderground v.1.15,2013-10-26 11:30:00,
2013-10-26 07:35:00,34.1,28.9,30.09,SSW,196,1.0,6.0,81,0.00,,,0.00,Wunderground v.1.15,2013-10-26 11:35:00,
2013-10-26 07:40:00,34.1,28.9,30.08,SW,220,1.0,1.0,81,0.00,,,0.00,Wunderground v.1.15,2013-10-26 11:40:00,
2013-10-26 07:45:00,34.1,28.9,30.08,WSW,237,0.0,6.0,81,0.00,,,0.00,Wunderground v.1.15,2013-10-26 11:45:00,
2013-10-26 07:50:00,34.1,28.9,30.08,West,261,0.0,6.0,81,0.00,,,0.00,Wunderground v.1.15,2013-10-26 11:50:00,
2013-10-26 08:00:00,34.1,28.9,30.08,WSW,247,1.0,1.0,81,0.00,,,0.00,Wunderground v.1.15,2013-10-26 12:00:00,
2013-10-26 08:05:00,34.1,28.9,30.08,WSW,250,1.0,6.0,81,0.00,,,0.00,Wunderground v.1.15,2013-10-26 12:05:00,
2013-10-26 08:10:00,34.1,28.9,30.08,WSW,256,1.0,1.0,81,0.00,,,0.00,Wunderground v.1.15,2013-10-26 12:10:00,
2013-10-26 08:15:00,34.1,28.9,30.08,WSW,238,1.0,4.0,81,0.00,,,0.00,Wunderground v.1.15,2013-10-26 12:15:00,
2013-10-26 08:20:00,34.3,29.4,30.07,WSW,258,1.0,1.0,82,0.00,,,0.00,Wunderground v.1.15,2013-10-26 12:20:00,
2013-10-26 08:25:00,34.4,29.2,30.07,South,183,2.0,5.0,81,0.00,,,0.00,Wunderground v.1.15,2013-10-26 12:25:00,
2013-10-26 08:35:00,34.8,29.3,30.07,WSW,250,2.0,6.0,80,0.00,,,0.00,Wunderground v.1.15,2013-10-26 12:35:00,
2013-10-26 08:40:00,35.0,29.5,30.07,WSW,251,2.0,2.0,80,0.00,,,0.00,Wunderground v.1.15,2013-10-26 12:40:00,
2013-10-26 08:45:00,35.3,29.7,30.07,WSW,249,2.0,6.0,80,0.00,,,0.00,Wunderground v.1.15,2013-10-26 12:45:00,
2013-10-26 08:50:00,35.7,30.1,30.07,WSW,257,2.0,6.0,80,0.00,,,0.00,Wunderground v.1.15,2013-10-26 12:50:00,
2013-10-26 09:00:00,36.6,30.4,30.07,SW,221,3.0,6.0,78,0.00,,,0.00,Wunderground v.1.15,2013-10-26 13:00:00,
2013-10-26 09:10:00,37.3,30.7,30.06,WSW,238,2.0,8.0,77,0.00,,,0.00,Wunderground v.1.15,2013-10-26 13:10:00,
2013-10-26 09:15:00,37.7,31.1,30.06,WSW,238,3.0,8.0,77,0.00,,,0.00,Wunderground v.1.15,2013-10-26 13:15:00,
2013-10-26 09:20:00,38.2,31.3,30.06,West,267,3.0,6.0,76,0.00,,,0.00,Wunderground v.1.15,2013-10-26 13:20:00,
2013-10-26 09:25:00,38.7,31.5,30.05,WSW,239,4.0,6.0,75,0.00,,,0.00,Wunderground v.1.15,2013-10-26 13:25:00,
2013-10-26 09:30:00,39.1,31.5,30.05,WSW,237,3.0,6.0,74,0.00,,,0.00,Wunderground v.1.15,2013-10-26 13:30:00,
2013-10-26 09:40:00,40.0,31.7,30.05,WSW,248,3.0,10.0,72,0.00,,,0.00,Wunderground v.1.15,2013-10-26 13:40:00,
2013-10-26 09:45:00,40.5,32.5,30.05,SW,233,4.0,10.0,73,0.00,,,0.00,Wunderground v.1.15,2013-10-26 13:45:00,
2013-10-26 09:50:00,41.1,33.8,30.04,WSW,242,4.0,7.0,75,0.00,,,0.00,Wunderground v.1.15,2013-10-26 13:50:00,
2013-10-26 09:55:00,41.5,32.4,30.04,WSW,251,4.0,10.0,70,0.00,,,0.00,Wunderground v.1.15,2013-10-26 13:55:00,
2013-10-26 10:00:00,41.8,32.0,30.04,SE,145,5.0,5.0,68,0.00,,,0.00,Wunderground v.1.15,2013-10-26 14:00:00,
2013-10-26 10:10:00,42.5,32.3,30.04,WSW,241,7.0,7.0,67,0.00,,,0.00,Wunderground v.1.15,2013-10-26 14:10:00,
2013-10-26 10:20:00,42.9,32.3,30.03,West,280,6.0,13.0,66,0.00,,,0.00,Wunderground v.1.15,2013-10-26 14:20:00,
2013-10-26 10:25:00,43.2,32.6,30.03,WSW,248,7.0,13.0,66,0.00,,,0.00,Wunderground v.1.15,2013-10-26 14:25:00,
2013-10-26 10:30:00,43.6,32.6,30.03,SSW,208,7.0,7.0,65,0.00,,,0.00,Wunderground v.1.15,2013-10-26 14:30:00,
2013-10-26 10:35:00,43.8,32.8,30.03,WSW,251,6.0,7.0,65,0.00,,,0.00,Wunderground v.1.15,2013-10-26 14:35:00,
2013-10-26 10:40:00,43.9,32.5,30.02,WSW,258,6.0,11.0,64,0.00,,,0.00,Wunderground v.1.15,2013-10-26 14:40:00,
2013-10-26 10:50:00,44.5,33.5,30.02,West,261,5.0,8.0,65,0.00,,,0.00,Wunderground v.1.15,2013-10-26 14:50:00,
2013-10-26 10:55:00,45.1,33.2,30.02,WSW,252,5.0,8.0,63,0.00,,,0.00,Wunderground v.1.15,2013-10-26 14:55:00,
2013-10-26 11:00:00,45.6,34.5,30.01,SW,236,4.0,16.0,65,0.00,,,0.00,Wunderground v.1.15,2013-10-26 15:00:00,
2013-10-26 11:05:00,45.7,33.8,30.01,SW,235,4.0,16.0,63,0.00,,,0.00,Wunderground v.1.15,2013-10-26 15:05:00,
2013-10-26 11:10:00,46.3,34.0,30.00,WSW,256,4.0,6.0,62,0.00,,,0.00,Wunderground v.1.15,2013-10-26 15:10:00,
2013-10-26 11:20:00,47.0,34.2,30.00,SW,225,4.0,13.0,61,0.00,,,0.00,Wunderground v.1.15,2013-10-26 15:20:00,
2013-10-26 11:25:00,47.1,33.5,30.00,West,274,7.0,13.0,59,0.00,,,0.00,Wunderground v.1.15,2013-10-26 15:25:00,
2013-10-26 11:30:00,47.4,33.8,29.99,SSW,202,8.0,8.0,59,0.00,,,0.00,Wunderground v.1.15,2013-10-26 15:30:00,
2013-10-26 11:35:00,47.5,33.4,29.99,SW,231,7.0,8.0,58,0.00,,,0.00,Wunderground v.1.15,2013-10-26 15:35:00,
2013-10-26 11:40:00,47.4,33.8,29.98,WSW,238,6.0,8.0,59,0.00,,,0.00,Wunderground v.1.15,2013-10-26 15:40:00,
2013-10-26 11:45:00,47.0,33.0,29.98,SSW,205,4.0,8.0,58,0.00,,,0.00,Wunderground v.1.15,2013-10-26 15:45:00,
2013-10-26 11:55:00,47.1,33.1,29.98,SW,231,4.0,6.0,58,0.00,,,0.00,Wunderground v.1.15,2013-10-26 15:55:00,
2013-10-26 12:00:00,47.2,33.2,29.97,SW,217,5.0,9.0,58,0.00,,,0.00,Wunderground v.1.15,2013-10-26 16:00:00,
2013-10-26 12:05:00,47.2,34.0,29.98,SW,223,5.0,9.0,60,0.00,,,0.00,Wunderground v.1.15,2013-10-26 16:05:00,
2013-10-26 12:10:00,47.1,33.5,29.98,SSW,213,3.0,3.0,59,0.00,,,0.00,Wunderground v.1.15,2013-10-26 16:10:00,
2013-10-26 12:15:00,46.7,33.5,29.97,West,272,3.0,6.0,60,0.00,,,0.00,Wunderground v.1.15,2013-10-26 16:15:00,
2013-10-26 12:20:00,46.5,33.4,29.97,SSW,207,2.0,2.0,60,0.00,,,0.00,Wunderground v.1.15,2013-10-26 16:20:00,
2013-10-26 12:30:00,45.8,32.7,29.97,SSW,206,3.0,3.0,60,0.00,,,0.00,Wunderground v.1.15,2013-10-26 16:30:00,
2013-10-26 12:35:00,45.6,32.5,29.96,SSW,210,3.0,6.0,60,0.00,,,0.00,Wunderground v.1.15,2013-10-26 16:35:00,
2013-10-26 12:40:00,45.7,32.6,29.96,WSW,244,2.0,6.0,60,0.00,,,0.00,Wunderground v.1.15,2013-10-26 16:40:00,
2013-10-26 12:45:00,45.8,32.7,29.96,West,275,2.0,6.0,60,0.00,,,0.00,Wunderground v.1.15,2013-10-26 16:45:00,
2013-10-26 12:55:00,45.9,32.4,29.95,West,274,4.0,10.0,59,0.00,,,0.00,Wunderground v.1.15,2013-10-26 16:55:00,
2013-10-26 13:00:00,45.9,31.9,29.95,West,273,2.0,2.0,58,0.00,,,0.00,Wunderground v.1.15,2013-10-26 17:00:00,
2013-10-26 13:10:00,45.8,32.7,29.95,WSW,252,1.0,1.0,60,0.00,,,0.00,Wunderground v.1.15,2013-10-26 17:10:00,
2013-10-26 13:15:00,45.9,32.8,29.94,WSW,243,2.0,2.0,60,0.00,,,0.00,Wunderground v.1.15,2013-10-26 17:15:00,
2013-10-26 13:20:00,45.9,32.4,29.93,WSW,248,3.0,3.0,59,0.00,,,0.00,Wunderground v.1.15,2013-10-26 17:20:00,
2013-10-26 13:25:00,45.9,32.4,29.93,SW,224,3.0,4.0,59,0.00,,,0.00,Wunderground v.1.15,2013-10-26 17:25:00,
2013-10-26 13:30:00,46.0,32.9,29.92,West,268,3.0,6.0,60,0.00,,,0.00,Wunderground v.1.15,2013-10-26 17:30:00,
2013-10-26 13:35:00,46.2,33.5,29.92,SSW,192,2.0,6.0,61,0.00,,,0.00,Wunderground v.1.15,2013-10-26 17:35:00,
2013-10-26 13:40:00,46.5,33.8,29.92,WSW,255,3.0,6.0,61,0.00,,,0.00,Wunderground v.1.15,2013-10-26 17:40:00,
2013-10-26 13:45:00,47.2,33.6,29.91,WSW,246,3.0,6.0,59,0.00,,,0.00,Wunderground v.1.15,2013-10-26 17:45:00,
2013-10-26 13:50:00,48.1,34.4,29.91,West,271,3.0,6.0,59,0.00,,,0.00,Wunderground v.1.15,2013-10-26 17:50:00,
2013-10-26 13:55:00,49.1,34.5,29.91,SW,225,3.0,6.0,57,0.00,,,0.00,Wunderground v.1.15,2013-10-26 17:55:00,
2013-10-26 14:00:00,48.8,33.3,29.90,SW,215,4.0,4.0,55,0.00,,,0.00,Wunderground v.1.15,2013-10-26 18:00:00,
2013-10-26 14:10:00,48.1,32.2,29.90,WNW,285,5.0,6.0,54,0.00,,,0.00,Wunderground v.1.15,2013-10-26 18:10:00,
2013-10-26 14:15:00,47.9,32.9,29.90,SSW,213,5.0,6.0,56,0.00,,,0.00,Wunderground v.1.15,2013-10-26 18:15:00,
2013-10-26 14:20:00,47.9,33.4,29.89,SW,220,3.0,3.0,57,0.00,,,0.00,Wunderground v.1.15,2013-10-26 18:20:00,
2013-10-26 14:25:00,48.2,33.7,29.89,SW,236,3.0,8.0,57,0.00,,,0.00,Wunderground v.1.15,2013-10-26 18:25:00,
2013-10-26 14:30:00,49.0,34.0,29.89,SW,225,4.0,6.0,56,0.00,,,0.00,Wunderground v.1.15,2013-10-26 18:30:00,
2013-10-26 14:40:00,48.9,32.0,29.88,SW,236,4.0,6.0,52,0.00,,,0.00,Wunderground v.1.15,2013-10-26 18:40:00,
2013-10-26 14:45:00,48.5,32.6,29.88,WSW,257,4.0,8.0,54,0.00,,,0.00,Wunderground v.1.15,2013-10-26 18:45:00,
2013-10-26 14:55:00,47.8,31.9,29.88,West,266,4.0,6.0,54,0.00,,,0.00,Wunderground v.1.15,2013-10-26 18:55:00,
2013-10-26 15:00:00,47.8,32.4,29.88,SW,221,3.0,7.0,55,0.00,,,0.00,Wunderground v.1.15,2013-10-26 19:00:00,
2013-10-26 15:05:00,48.0,33.0,29.88,WSW,256,3.0,7.0,56,0.00,,,0.00,Wunderground v.1.15,2013-10-26 19:05:00,
2013-10-26 15:15:00,48.1,31.8,29.88,SSW,196,3.0,6.0,53,0.00,,,0.00,Wunderground v.1.15,2013-10-26 19:15:00,
2013-10-26 15:20:00,47.9,31.6,29.87,SSW,207,4.0,10.0,53,0.00,,,0.00,Wunderground v.1.15,2013-10-26 19:20:00,
2013-10-26 15:25:00,47.7,31.9,29.88,SSW,197,5.0,10.0,54,0.00,,,0.00,Wunderground v.1.15,2013-10-26 19:25:00,
2013-10-26 15:30:00,47.6,31.3,29.88,SW,223,4.0,4.0,53,0.00,,,0.00,Wunderground v.1.15,2013-10-26 19:30:00,
2013-10-26 15:35:00,47.6,31.8,29.88,WSW,251,4.0,6.0,54,0.00,,,0.00,Wunderground v.1.15,2013-10-26 19:35:00,
2013-10-26 15:40:00,47.5,31.7,29.88,West,260,3.0,8.0,54,0.00,,,0.00,Wunderground v.1.15,2013-10-26 19:40:00,
2013-10-26 15:50:00,47.2,31.4,29.88,SSW,211,2.0,6.0,54,0.00,,,0.00,Wunderground v.1.15,2013-10-26 19:50:00,
2013-10-26 15:55:00,47.2,31.4,29.88,WSW,238,3.0,6.0,54,0.00,,,0.00,Wunderground v.1.15,2013-10-26 19:55:00,
2013-10-26 16:05:00,47.0,31.2,29.87,WSW,242,3.0,6.0,54,0.00,,,0.00,Wunderground v.1.15,2013-10-26 20:05:00,
2013-10-26 16:10:00,47.0,31.2,29.87,WSW,253,3.0,3.0,54,0.00,,,0.00,Wunderground v.1.15,2013-10-26 20:10:00,
2013-10-26 16:15:00,47.0,31.7,29.87,WSW,242,3.0,6.0,55,0.00,,,0.00,Wunderground v.1.15,2013-10-26 20:15:00,
2013-10-26 16:25:00,46.9,31.6,29.86,West,259,2.0,6.0,55,0.00,,,0.00,Wunderground v.1.15,2013-10-26 20:25:00,
2013-10-26 16:30:00,46.9,32.0,29.86,SW,225,1.0,6.0,56,0.00,,,0.00,Wunderground v.1.15,2013-10-26 20:30:00,
2013-10-26 16:35:00,46.8,31.9,29.86,WSW,241,1.0,6.0,56,0.00,,,0.00,Wunderground v.1.15,2013-10-26 20:35:00,
2013-10-26 16:40:00,46.8,31.9,29.87,West,265,1.0,1.0,56,0.00,,,0.00,Wunderground v.1.15,2013-10-26 20:40:00,
2013-10-26 16:45:00,46.8,31.5,29.87,South,189,2.0,2.0,55,0.00,,,0.00,Wunderground v.1.15,2013-10-26 20:45:00,
2013-10-26 16:55:00,46.9,32.0,29.87,SW,218,1.0,6.0,56,0.00,,,0.00,Wunderground v.1.15,2013-10-26 20:55:00,
2013-10-26 17:00:00,46.8,31.9,29.88,West,271,2.0,6.0,56,0.00,,,0.00,Wunderground v.1.15,2013-10-26 21:00:00,
2013-10-26 17:10:00,46.9,31.6,29.89,WSW,251,4.0,7.0,55,0.00,,,0.00,Wunderground v.1.15,2013-10-26 21:10:00,
2013-10-26 17:15:00,47.0,31.7,29.89,West,261,6.0,7.0,55,0.00,,,0.00,Wunderground v.1.15,2013-10-26 21:15:00,
2013-10-26 17:20:00,47.0,31.7,29.89,WSW,250,6.0,6.0,55,0.00,,,0.00,Wunderground v.1.15,2013-10-26 21:20:00,
2013-10-26 17:30:00,47.0,31.7,29.89,SSW,203,5.0,6.0,55,0.00,,,0.00,Wunderground v.1.15,2013-10-26 21:30:00,
2013-10-26 17:35:00,47.0,32.1,29.89,WSW,256,5.0,6.0,56,0.00,,,0.00,Wunderground v.1.15,2013-10-26 21:35:00,
2013-10-26 17:40:00,46.9,32.0,29.90,WSW,258,5.0,6.0,56,0.00,,,0.00,Wunderground v.1.15,2013-10-26 21:40:00,
2013-10-26 17:45:00,46.8,31.9,29.89,WSW,258,7.0,7.0,56,0.00,,,0.00,Wunderground v.1.15,2013-10-26 21:45:00,
2013-10-26 17:50:00,46.9,32.0,29.89,WSW,243,7.0,7.0,56,0.00,,,0.00,Wunderground v.1.15,2013-10-26 21:50:00,
2013-10-26 17:55:00,46.8,32.4,29.88,WSW,257,4.0,7.0,57,0.00,,,0.00,Wunderground v.1.15,2013-10-26 21:55:00,
2013-10-26 18:00:00,46.7,32.3,29.89,West,261,2.0,6.0,57,0.00,,,0.00,Wunderground v.1.15,2013-10-26 22:00:00,
2013-10-26 18:05:00,46.7,32.7,29.89,WSW,242,3.0,8.0,58,0.00,,,0.00,Wunderground v.1.15,2013-10-26 22:05:00,
2013-10-26 18:15:00,46.6,32.6,29.90,WSW,252,5.0,7.0,58,0.00,,,0.00,Wunderground v.1.15,2013-10-26 22:15:00,
2013-10-26 18:20:00,46.6,32.6,29.90,WSW,255,5.0,6.0,58,0.00,,,0.00,Wunderground v.1.15,2013-10-26 22:20:00,
2013-10-26 18:25:00,46.6,32.6,29.91,WSW,256,4.0,6.0,58,0.00,,,0.00,Wunderground v.1.15,2013-10-26 22:25:00,
2013-10-26 18:30:00,46.5,32.9,29.91,WSW,246,5.0,6.0,59,0.00,,,0.00,Wunderground v.1.15,2013-10-26 22:30:00,
2013-10-26 18:40:00,46.5,32.9,29.91,West,260,4.0,4.0,59,0.00,,,0.00,Wunderground v.1.15,2013-10-26 22:40:00,
2013-10-26 18:45:00,46.5,32.9,29.91,West,273,4.0,5.0,59,0.00,,,0.00,Wunderground v.1.15,2013-10-26 22:45:00,
2013-10-26 18:50:00,46.5,32.9,29.91,West,276,4.0,4.0,59,0.00,,,0.00,Wunderground v.1.15,2013-10-26 22:50:00,
2013-10-26 18:55:00,46.5,32.9,29.92,WSW,252,4.0,6.0,59,0.00,,,0.00,Wunderground v.1.15,2013-10-26 22:55:00,
2013-10-26 19:00:00,46.5,32.9,29.92,WSW,254,4.0,4.0,59,0.00,,,0.00,Wunderground v.1.15,2013-10-26 23:00:00,
2013-10-26 19:10:00,46.5,33.4,29.92,West,259,4.0,6.0,60,0.00,,,0.00,Wunderground v.1.15,2013-10-26 23:10:00,
2013-10-26 19:15:00,46.5,33.8,29.91,WSW,238,5.0,6.0,61,0.00,,,0.00,Wunderground v.1.15,2013-10-26 23:15:00,
2013-10-26 19:20:00,46.5,33.8,29.92,West,274,5.0,6.0,61,0.00,,,0.00,Wunderground v.1.15,2013-10-26 23:20:00,
2013-10-26 19:25:00,46.5,33.8,29.92,WSW,251,4.0,6.0,61,0.00,,,0.00,Wunderground v.1.15,2013-10-26 23:25:00,
2013-10-26 19:30:00,46.5,34.2,29.92,West,274,4.0,6.0,62,0.00,,,0.00,Wunderground v.1.15,2013-10-26 23:30:00,
2013-10-26 19:35:00,46.4,34.1,29.92,WSW,257,5.0,6.0,62,0.00,,,0.00,Wunderground v.1.15,2013-10-26 23:35:00,
2013-10-26 19:45:00,46.1,34.2,29.93,West,271,5.0,6.0,63,0.00,,,0.00,Wunderground v.1.15,2013-10-26 23:45:00,
2013-10-26 19:50:00,45.8,34.3,29.93,SW,232,4.0,4.0,64,0.00,,,0.00,Wunderground v.1.15,2013-10-26 23:50:00,
2013-10-26 19:55:00,45.6,34.5,29.93,West,260,4.0,5.0,65,0.00,,,0.00,Wunderground v.1.15,2013-10-26 23:55:00,
2013-10-26 20:00:00,45.6,34.9,29.93,West,265,4.0,4.0,66,0.00,,,0.00,Wunderground v.1.15,2013-10-27 00:00:00,
2013-10-26 20:05:00,45.6,35.3,29.93,West,269,4.0,6.0,67,0.00,,,0.00,Wunderground v.1.15,2013-10-27 00:05:00,
2013-10-26 20:15:00,45.6,35.3,29.92,West,261,4.0,6.0,67,0.00,,,0.00,Wunderground v.1.15,2013-10-27 00:15:00,
2013-10-26 20:20:00,45.6,35.3,29.92,West,269,5.0,5.0,67,0.00,,,0.00,Wunderground v.1.15,2013-10-27 00:20:00,
2013-10-26 20:30:00,45.3,35.4,29.92,WSW,244,3.0,6.0,68,0.00,,,0.00,Wunderground v.1.15,2013-10-27 00:30:00,
2013-10-26 20:35:00,45.1,35.5,29.91,SW,232,3.0,6.0,69,0.00,,,0.00,Wunderground v.1.15,2013-10-27 00:35:00,
2013-10-26 20:40:00,45.0,35.8,29.92,WSW,244,2.0,6.0,70,0.00,,,0.00,Wunderground v.1.15,2013-10-27 00:40:00,
2013-10-26 20:50:00,44.8,35.6,29.93,West,272,3.0,6.0,70,0.00,,,0.00,Wunderground v.1.15,2013-10-27 00:50:00,
2013-10-26 20:55:00,44.8,36.0,29.93,WSW,238,5.0,6.0,71,0.00,,,0.00,Wunderground v.1.15,2013-10-27 00:55:00,
2013-10-26 21:00:00,44.8,36.0,29.93,WSW,256,5.0,5.0,71,0.00,,,0.00,Wunderground v.1.15,2013-10-27 01:00:00,
2013-10-26 21:05:00,45.0,36.2,29.93,West,269,5.0,6.0,71,0.00,,,0.00,Wunderground v.1.15,2013-10-27 01:05:00,
2013-10-26 21:10:00,45.1,35.9,29.93,West,275,5.0,5.0,70,0.00,,,0.00,Wunderground v.1.15,2013-10-27 01:10:00,
2013-10-26 21:15:00,45.1,35.9,29.93,WSW,250,4.0,6.0,70,0.00,,,0.00,Wunderground v.1.15,2013-10-27 01:15:00,
2013-10-26 21:25:00,45.1,36.3,29.93,West,264,4.0,6.0,71,0.00,,,0.00,Wunderground v.1.15,2013-10-27 01:25:00,
2013-10-26 21:30:00,45.1,36.3,29.93,West,273,4.0,4.0,71,0.00,,,0.00,Wunderground v.1.15,2013-10-27 01:30:00,
2013-10-26 21:35:00,45.2,36.4,29.93,WSW,253,4.0,6.0,71,0.00,,,0.00,Wunderground v.1.15,2013-10-27 01:35:00,
2013-10-26 21:40:00,45.2,36.4,29.93,WSW,257,4.0,6.0,71,0.00,,,0.00,Wunderground v.1.15,2013-10-27 01:40:00,
2013-10-26 21:50:00,45.4,36.9,29.94,West,265,4.0,6.0,72,0.00,,,0.00,Wunderground v.1.15,2013-10-27 01:50:00,
2013-10-26 21:55:00,45.4,36.9,29.94,West,275,5.0,6.0,72,0.00,,,0.00,Wunderground v.1.15,2013-10-27 01:55:00,
2013-10-26 22:05:00,45.3,37.2,29.94,West,273,4.0,6.0,73,0.00,,,0.00,Wunderground v.1.15,2013-10-27 02:05:00,
2013-10-26 22:10:00,45.3,37.2,29.95,West,269,4.0,6.0,73,0.00,,,0.00,Wunderground v.1.15,2013-10-27 02:10:00,
2013-10-26 22:15:00,45.4,37.2,29.95,West,275,5.0,6.0,73,0.00,,,0.00,Wunderground v.1.15,2013-10-27 02:15:00,
2013-10-26 22:20:00,45.5,37.7,29.96,West,275,5.0,5.0,74,0.00,,,0.00,Wunderground v.1.15,2013-10-27 02:20:00,
2013-10-26 22:30:00,45.5,37.7,29.96,West,271,2.0,2.0,74,0.00,,,0.00,Wunderground v.1.15,2013-10-27 02:30:00,
2013-10-26 22:35:00,45.4,37.9,29.96,West,271,0.0,6.0,75,0.00,,,0.00,Wunderground v.1.15,2013-10-27 02:35:00,
2013-10-26 22:40:00,45.2,37.7,29.96,West,271,0.0,6.0,75,0.00,,,0.00,Wunderground v.1.15,2013-10-27 02:40:00,
2013-10-26 22:45:00,45.1,38.0,29.96,West,272,2.0,6.0,76,0.00,,,0.00,Wunderground v.1.15,2013-10-27 02:45:00,
2013-10-26 22:50:00,45.0,37.9,29.96,West,263,3.0,6.0,76,0.00,,,0.00,Wunderground v.1.15,2013-10-27 02:50:00,
2013-10-26 23:00:00,45.0,37.9,29.96,West,271,3.0,6.0,76,0.00,,,0.00,Wunderground v.1.15,2013-10-27 03:00:00,
2013-10-26 23:05:00,44.8,37.7,29.96,West,271,2.0,6.0,76,0.00,,,0.00,Wunderground v.1.15,2013-10-27 03:05:00,
2013-10-26 23:10:00,44.5,37.4,29.96,West,261,1.0,6.0,76,0.00,,,0.00,Wunderground v.1.15,2013-10-27 03:10:00,
2013-10-26 23:15:00,44.2,37.4,29.96,West,261,1.0,6.0,77,0.00,,,0.00,Wunderground v.1.15,2013-10-27 03:15:00,
2013-10-26 23:20:00,43.9,37.2,29.97,West,261,1.0,1.0,77,0.00,,,0.00,Wunderground v.1.15,2013-10-27 03:20:00,
2013-10-26 23:25:00,43.6,36.9,29.97,West,261,0.0,6.0,77,0.00,,,0.00,Wunderground v.1.15,2013-10-27 03:25:00,
2013-10-26 23:30:00,43.3,36.9,29.97,West,261,0.0,6.0,78,0.00,,,0.00,Wunderground v.1.15,2013-10-27 03:30:00,
2013-10-26 23:40:00,42.8,36.7,29.97,West,261,0.0,6.0,79,0.00,,,0.00,Wunderground v.1.15,2013-10-27 03:40:00,
2013-10-26 23:45:00,42.6,36.9,29.97,West,261,0.0,6.0,80,0.00,,,0.00,Wunderground v.1.15,2013-10-27 03:45:00,
2013-10-26 23:50:00,42.5,37.1,29.97,West,261,0.0,6.0,81,0.00,,,0.00,Wunderground v.1.15,2013-10-27 03:50:00,